Location: Buffign�court
(47.8126°N, 6.0176°E)
Time: 18:54:15
(UTC+00:00)

ATLAS 3B R/B - Pass Details

Date: 16 June 2021
Orbit: 1003 x 1191 km, 63.8° (Epoch: 21 July)

Event Time Altitude Azimuth Distance (km) Brightness Sun altitude
Exits shadow 21:18:01 - 189° (S) 3,119 4.7 -12.3°
Reaches altitude 10° 21:19:01 10° 186° (S) 2,775 4.4 -12.4°
Maximum altitude 21:25:05 43° 117° (ESE) 1,411 3.0 -12.9°
Drops below altitude 10° 21:31:20 10° 49° (NE) 2,868 5.1 -13.4°
Sets 21:34:08 0° 43° (NE) 3,853 5.9 -13.7°
